Weather Roundup
Issued by NWS Chicago, IL

Home | Current Version | Previous Version | Text Only | Print | Product List | Glossary On
Versions: 1 2 3 4 5 6 7 8 9 10 11 12 13 14 15 16 17 18 19 20 21 22 23 24 25 26 27 28 29 30 31 32 33 34 35 36 37 38 39 40 41 42 43 44 45 46 47 48 49 50
000
NZUS59 KLOT 271908
HRRLOT

CHICAGO AREA WEATHER ROUNDUP
NATIONAL WEATHER SERVICE CHICAGO/ROMEOVILLE IL
200 PM CDT FRI MAY 27 2016

NOTE: "FAIR" INDICATES FEW OR NO CLOUDS BELOW 12,000 FEET WITH NO
SIGNIFICANT WEATHER AND/OR OBSTRUCTIONS TO VISIBILITY.

* THESE STATIONS ARE NOT UNDER NWS QUALITY CONTROL. THEY ALSO MAY NOT
  REPORT WEATHER SUCH AS PRECIPITATION OR FOG.

ILZ005-006-012>014-019>023-272000-
NORTHEAST ILLINOIS

CITY           SKY/WX    TMP DP  RH WIND       PRES   REMARKS
OHARE          CLOUDY    81  63  54 S20G25    29.85F HX  82
MIDWAY         CLOUDY    79  64  60 S13G28    29.86F HX  81
AURORA         MOSUNNY   82  65  56 S23G31    29.84F HX  84
LANSING*       CLOUDY    81  64  55 S10G16    29.88F HX  82
JOLIET*        CLOUDY    81  66  59 S13G20    29.86F HX  83
WAUKEGAN       LGT RAIN  74  65  73 SE10      29.86F
DUPAGE AIRPORT CLOUDY    81  63  54 S21       29.84F HX  82
WHEELING       CLOUDY    80  62  54 S15       29.86F HX  81
KANKAKEE*      PTSUNNY   83  66  55 S13G20    29.88F HX  85
MORRIS*        CLOUDY    80  62  54 S16G23    29.84F HX  81
LEWIS AIRPORT* CLOUDY    81  60  49 S23       29.86F HX  81
$$

WIZ051-052-058>065-066-070>072-272000-
SOUTHEAST WISCONSIN

CITY           SKY/WX    TMP DP  RH WIND       PRES   REMARKS
MILWAUKEE      PTSUNNY   75  66  73 SE14      29.85F
KENOSHA*       PTSUNNY   78  67  68 SE13      29.86F HX  80
RACINE*        PTSUNNY   74  64  71 S14G22    29.88F
BURLINGTON     CLOUDY    82  63  52 SE13G18   29.84F HX  83
WAUKESHA       PTSUNNY   77  64  65 S7        29.86F
WEST BEND      CLOUDY    75  68  78 N5        29.85F
$$

INZ001>003-010>013-019-020-272000-
NORTHWEST INDIANA

CITY           SKY/WX    TMP DP  RH WIND       PRES   REMARKS
GARY*          PTSUNNY   82  70  65 S6        29.89F HX  86
MICHIGAN CITY* NOT AVBL
RENSSELAER*    NOT AVBL
VALPARAISO     PTSUNNY   84  62  47 S16G28    29.90F HX  85
$$

LMZ740>746-272000-
SOUTHERN LAKE MICHIGAN

STATION/POSITION TIME  SKY/WX   TEMP WIND        PRES    VSBY
                                AIR  DIR/SP/G
                 (UTC)          (F)  (DEG/KT/KT) (MB)    (MI)
HARRISON CRIB    1800            70  120/ 15/ 16   N/A
BURNHAM HARBOR   1900            75  180/  7/ 16   N/A
CALUMET HARBOR   1800            81  170/ 12/ 18 1011.4F
BURNS HARBOR     1800            80  190/ 11/ 19 1013.2F
MICHIGAN CITY    1800            78  180/ 13/ 16   N/A
$$

ABBREVIATIONS USED IN REMARKS
   TC - TEMPERATURE IN CELSIUS
  WCI - WIND CHILL INDEX
   HX - HEAT INDEX
  VSB - VISIBILITY
$$



USA.gov is the U.S. government's official web portal to all federal, state and local government web resources and services.